TimeEST,TemperatureF,Dew PointF,Humidity,Sea Level PressureIn,VisibilityMPH,Wind Direction,Wind SpeedMPH,Gust SpeedMPH,PrecipitationIn,Events,Conditions,WindDirDegrees,DateUTC
12:09 AM,41.0,39.2,93,30.03,2.5,Calm,Calm,-,N/A,Rain,Light Rain,0,2012-12-08 05:09:00
12:14 AM,39.2,39.2,100,30.04,2.0,Calm,Calm,-,N/A,Rain,Light Rain,0,2012-12-08 05:14:00
12:15 AM,39.2,39.2,100,30.04,2.0,Calm,Calm,-,N/A,Rain,Light Rain,0,2012-12-08 05:15:00
12:16 AM,39.2,39.2,100,30.04,2.0,WNW,3.5,-,N/A,,Overcast,300,2012-12-08 05:16:00
12:22 AM,39.2,39.2,100,30.03,1.8,Calm,Calm,-,N/A,,Overcast,0,2012-12-08 05:22:00
12:24 AM,39.2,39.2,100,30.03,1.5,Calm,Calm,-,N/A,,Overcast,0,2012-12-08 05:24:00
12:31 AM,39.2,39.2,100,30.03,1.8,Calm,Calm,-,N/A,,Overcast,0,2012-12-08 05:31:00
12:33 AM,39.2,39.2,100,30.03,2.0,Calm,Calm,-,N/A,,Overcast,0,2012-12-08 05:33:00
12:35 AM,39.2,39.2,100,30.03,2.0,Calm,Calm,-,N/A,Rain,Light Rain,0,2012-12-08 05:35:00
12:40 AM,39.2,39.2,100,30.03,2.0,Calm,Calm,-,N/A,Rain,Light Rain,0,2012-12-08 05:40:00
12:41 AM,39.2,39.2,100,30.03,2.5,Calm,Calm,-,N/A,Rain,Light Rain,0,2012-12-08 05:41:00
12:47 AM,39.2,39.2,100,30.02,2.5,Calm,Calm,-,N/A,,Overcast,0,2012-12-08 05:47:00
12:55 AM,38.8,38.3,98,30.02,2.5,Calm,Calm,-,0.01,,Overcast,0,2012-12-08 05:55:00
1:02 AM,39.2,37.4,93,30.02,2.0,Calm,Calm,-,N/A,,Overcast,0,2012-12-08 06:02:00
1:13 AM,39.2,37.4,93,30.02,2.5,Calm,Calm,-,N/A,,Overcast,0,2012-12-08 06:13:00
1:24 AM,39.2,37.4,93,30.02,2.0,Calm,Calm,-,N/A,,Overcast,0,2012-12-08 06:24:00
1:31 AM,39.2,37.4,93,30.02,2.0,Calm,Calm,-,N/A,,Overcast,0,2012-12-08 06:31:00
1:43 AM,39.2,37.4,93,30.02,2.0,Calm,Calm,-,N/A,,Overcast,0,2012-12-08 06:43:00
1:52 AM,39.2,37.4,93,30.02,2.5,Calm,Calm,-,N/A,,Overcast,0,2012-12-08 06:52:00
1:55 AM,38.8,38.3,98,30.02,2.5,Calm,Calm,-,N/A,,Overcast,0,2012-12-08 06:55:00
2:14 AM,39.2,39.2,100,30.02,2.0,Calm,Calm,-,N/A,,Overcast,0,2012-12-08 07:14:00
2:29 AM,39.2,37.4,93,30.02,2.0,Calm,Calm,-,N/A,,Overcast,0,2012-12-08 07:29:00
2:43 AM,39.2,39.2,100,30.02,2.0,Calm,Calm,-,N/A,,Overcast,0,2012-12-08 07:43:00
2:55 AM,38.8,38.3,98,30.01,2.0,Calm,Calm,-,0.01,,Overcast,0,2012-12-08 07:55:00
2:56 AM,39.2,39.2,100,30.01,1.8,Calm,Calm,-,N/A,Rain,Light Rain,0,2012-12-08 07:56:00
3:00 AM,39.2,39.2,100,30.01,1.5,Calm,Calm,-,N/A,Rain,Light Rain,0,2012-12-08 08:00:00
3:05 AM,39.2,39.2,100,30.01,1.5,Calm,Calm,-,N/A,Rain,Light Rain,0,2012-12-08 08:05:00
3:06 AM,39.2,39.2,100,30.01,1.2,Calm,Calm,-,N/A,Rain,Light Rain,0,2012-12-08 08:06:00
3:09 AM,39.2,39.2,100,30.01,1.2,Calm,Calm,-,N/A,,Mostly Cloudy,0,2012-12-08 08:09:00
3:13 AM,39.2,39.2,100,30.00,1.0,Calm,Calm,-,N/A,,Mist,0,2012-12-08 08:13:00
3:17 AM,39.2,39.2,100,30.00,1.0,Calm,Calm,-,N/A,,Mist,0,2012-12-08 08:17:00
3:19 AM,39.2,39.2,100,30.00,1.0,Calm,Calm,-,N/A,Rain,Light Rain,0,2012-12-08 08:19:00
3:20 AM,39.2,39.2,100,30.00,0.8,Calm,Calm,-,N/A,Rain,Light Rain,0,2012-12-08 08:20:00
3:22 AM,39.2,39.2,100,30.00,0.8,Calm,Calm,-,N/A,Rain,Light Rain,0,2012-12-08 08:22:00
3:23 AM,39.2,39.2,100,30.00,0.8,Calm,Calm,-,N/A,Rain,Light Rain,0,2012-12-08 08:23:00
3:24 AM,39.2,39.2,100,30.00,1.0,Calm,Calm,-,N/A,Rain,Light Rain,0,2012-12-08 08:24:00
3:26 AM,39.2,39.2,100,30.00,1.0,Calm,Calm,-,N/A,Rain,Light Rain,0,2012-12-08 08:26:00
3:32 AM,39.2,39.2,100,30.00,1.2,Calm,Calm,-,N/A,Rain,Light Rain,0,2012-12-08 08:32:00
3:34 AM,39.2,39.2,100,30.00,1.2,Calm,Calm,-,N/A,Rain,Light Rain,0,2012-12-08 08:34:00
3:45 AM,39.2,39.2,100,30.00,1.2,Calm,Calm,-,N/A,Rain,Light Rain,0,2012-12-08 08:45:00
3:55 AM,39.0,38.5,98,30.01,1.0,WNW,3.5,-,0.02,Rain,Light Rain,300,2012-12-08 08:55:00
3:56 AM,39.2,39.2,100,30.00,1.0,WNW,3.5,-,N/A,Rain,Light Rain,300,2012-12-08 08:56:00
3:59 AM,39.2,39.2,100,30.00,1.0,NW,3.5,-,N/A,Rain,Light Rain,310,2012-12-08 08:59:00
4:07 AM,39.2,39.2,100,29.99,1.0,Calm,Calm,-,N/A,Rain,Light Rain,0,2012-12-08 09:07:00
4:10 AM,39.2,39.2,100,29.99,0.8,Calm,Calm,-,N/A,Rain,Light Rain,0,2012-12-08 09:10:00
4:14 AM,39.2,39.2,100,29.99,0.8,NE,3.5,-,N/A,,Mist,40,2012-12-08 09:14:00
4:18 AM,39.2,37.4,93,29.99,1.0,NE,3.5,-,N/A,,Mist,50,2012-12-08 09:18:00
4:22 AM,39.2,37.4,93,29.99,1.0,Calm,Calm,-,N/A,,Mist,0,2012-12-08 09:22:00
4:23 AM,39.2,37.4,93,29.99,1.0,Calm,Calm,-,N/A,Rain,Light Rain,0,2012-12-08 09:23:00
4:25 AM,39.2,37.4,93,29.99,1.0,Calm,Calm,-,N/A,Rain,Light Rain,0,2012-12-08 09:25:00
4:26 AM,39.2,37.4,93,29.99,1.0,Calm,Calm,-,N/A,Rain,Light Rain,0,2012-12-08 09:26:00
4:27 AM,39.2,37.4,93,29.99,1.2,Calm,Calm,-,N/A,Rain,Light Rain,0,2012-12-08 09:27:00
4:29 AM,39.2,39.2,100,29.99,1.2,Calm,Calm,-,N/A,Rain,Light Rain,0,2012-12-08 09:29:00
4:32 AM,39.2,39.2,100,29.99,1.2,Calm,Calm,-,N/A,Rain,Light Rain,0,2012-12-08 09:32:00
4:33 AM,39.2,39.2,100,29.99,1.2,Calm,Calm,-,N/A,Rain,Light Rain,0,2012-12-08 09:33:00
4:36 AM,39.2,39.2,100,29.99,1.2,Calm,Calm,-,N/A,Rain,Light Rain,0,2012-12-08 09:36:00
4:44 AM,39.2,39.2,100,29.99,1.5,Calm,Calm,-,N/A,Rain,Light Rain,0,2012-12-08 09:44:00
4:47 AM,39.2,39.2,100,29.98,1.5,Calm,Calm,-,N/A,Rain,Light Rain,0,2012-12-08 09:47:00
4:55 AM,39.0,38.5,98,29.98,1.5,Calm,Calm,-,0.06,Rain,Light Rain,0,2012-12-08 09:55:00
4:59 AM,39.2,39.2,100,29.98,1.5,Calm,Calm,-,N/A,Rain,Light Rain,0,2012-12-08 09:59:00
5:09 AM,39.2,39.2,100,29.97,1.5,NE,3.5,-,N/A,Rain,Light Rain,40,2012-12-08 10:09:00
5:13 AM,39.2,39.2,100,29.97,1.8,Calm,Calm,-,N/A,Rain,Light Rain,0,2012-12-08 10:13:00
5:15 AM,39.2,39.2,100,29.97,1.8,Calm,Calm,-,N/A,Rain,Light Rain,0,2012-12-08 10:15:00
5:20 AM,39.2,39.2,100,29.97,1.8,North,3.5,-,N/A,Rain,Light Rain,10,2012-12-08 10:20:00
5:22 AM,39.2,39.2,100,29.97,2.0,North,3.5,-,N/A,Rain,Light Rain,10,2012-12-08 10:22:00
5:32 AM,39.2,39.2,100,29.97,2.0,Calm,Calm,-,N/A,,Scattered Clouds,0,2012-12-08 10:32:00
5:37 AM,39.2,39.2,100,29.97,2.0,Calm,Calm,-,N/A,,Mostly Cloudy,0,2012-12-08 10:37:00
5:43 AM,39.2,39.2,100,29.97,2.5,NW,3.5,-,N/A,,Mostly Cloudy,310,2012-12-08 10:43:00
5:44 AM,39.2,39.2,100,29.97,2.5,NW,3.5,-,N/A,Rain,Light Rain,310,2012-12-08 10:44:00
5:55 AM,39.2,38.8,99,29.97,3.0,NNW,4.6,-,0.03,Rain,Light Rain,330,2012-12-08 10:55:00
6:00 AM,39.2,39.2,100,29.97,4.0,NNE,3.5,-,N/A,Rain,Light Rain,20,2012-12-08 11:00:00
6:11 AM,39.2,39.2,100,29.97,3.0,North,3.5,-,N/A,,Overcast,360,2012-12-08 11:11:00
6:22 AM,39.2,39.2,100,29.97,4.0,Calm,Calm,-,N/A,,Overcast,0,2012-12-08 11:22:00
6:25 AM,39.2,39.2,100,29.97,4.0,NNW,3.5,-,N/A,,Overcast,330,2012-12-08 11:25:00
6:27 AM,39.2,39.2,100,29.97,4.0,NNW,3.5,-,N/A,Rain,Light Rain,330,2012-12-08 11:27:00
6:33 AM,39.2,39.2,100,29.97,4.0,North,3.5,-,N/A,Rain,Light Rain,350,2012-12-08 11:33:00
6:38 AM,39.2,39.2,100,29.97,4.0,Calm,Calm,-,N/A,Rain,Light Rain,0,2012-12-08 11:38:00
6:41 AM,39.2,39.2,100,29.97,3.0,Calm,Calm,-,N/A,Rain,Light Rain,0,2012-12-08 11:41:00
6:46 AM,39.2,39.2,100,29.97,2.5,Calm,Calm,-,N/A,Rain,Light Rain,0,2012-12-08 11:46:00
6:51 AM,39.2,39.2,100,29.97,2.0,Calm,Calm,-,N/A,Rain,Light Rain,0,2012-12-08 11:51:00
6:53 AM,39.2,39.2,100,29.97,2.0,Calm,Calm,-,N/A,,Light Drizzle,0,2012-12-08 11:53:00
6:55 AM,38.8,38.3,98,29.97,2.0,Calm,Calm,-,0.03,,Light Drizzle,0,2012-12-08 11:55:00
6:58 AM,39.2,39.2,100,29.96,1.8,NNE,3.5,-,N/A,,Light Drizzle,30,2012-12-08 11:58:00
7:00 AM,39.2,39.2,100,29.96,2.0,NNE,3.5,-,N/A,,Light Drizzle,30,2012-12-08 12:00:00
7:01 AM,39.2,39.2,100,29.96,2.0,NNE,3.5,-,N/A,,Light Drizzle,30,2012-12-08 12:01:00
7:04 AM,39.2,39.2,100,29.96,2.0,NNE,3.5,-,N/A,,Light Drizzle,30,2012-12-08 12:04:00
7:07 AM,39.2,39.2,100,29.96,2.0,NNE,4.6,-,N/A,,Light Drizzle,20,2012-12-08 12:07:00
7:09 AM,39.2,39.2,100,29.96,2.0,NNE,3.5,-,N/A,,Overcast,20,2012-12-08 12:09:00
7:10 AM,39.2,39.2,100,29.96,2.0,NNE,3.5,-,N/A,,Overcast,20,2012-12-08 12:10:00
7:12 AM,39.2,39.2,100,29.96,2.5,Calm,Calm,-,N/A,,Overcast,0,2012-12-08 12:12:00
7:16 AM,39.2,39.2,100,29.96,3.0,North,3.5,-,N/A,,Mostly Cloudy,10,2012-12-08 12:16:00
7:25 AM,39.2,39.2,100,29.95,6.0,North,5.8,-,N/A,,Mostly Cloudy,360,2012-12-08 12:25:00
7:27 AM,39.2,39.2,100,29.95,6.0,North,5.8,-,N/A,,Mostly Cloudy,350,2012-12-08 12:27:00
7:36 AM,39.2,39.2,100,29.95,3.0,North,4.6,-,N/A,,Overcast,10,2012-12-08 12:36:00
7:55 AM,39.0,38.5,98,29.94,2.0,North,3.5,-,0.01,,Overcast,10,2012-12-08 12:55:00
8:07 AM,39.2,39.2,100,29.94,2.0,Calm,Calm,-,N/A,,Light Drizzle,0,2012-12-08 13:07:00
8:19 AM,39.2,39.2,100,29.95,2.0,NW,4.6,-,N/A,Rain,Light Rain,310,2012-12-08 13:19:00
8:55 AM,38.5,37.9,98,29.95,1.5,North,6.9,-,0.03,Rain,Rain,350,2012-12-08 13:55:00
9:21 AM,39.2,39.2,100,29.94,1.5,NNE,5.8,-,N/A,Rain,Light Rain,20,2012-12-08 14:21:00
9:55 AM,39.9,39.4,98,29.94,1.5,North,5.8,-,0.01,Rain,Light Rain,360,2012-12-08 14:55:00
10:17 AM,39.2,39.2,100,29.94,1.5,North,4.6,-,N/A,,Light Drizzle,350,2012-12-08 15:17:00
10:55 AM,40.5,39.9,98,29.93,1.5,NNW,5.8,-,0.00,,Light Drizzle,340,2012-12-08 15:55:00
11:34 AM,41.0,41.0,100,29.91,1.2,North,5.8,-,N/A,,Light Drizzle,350,2012-12-08 16:34:00
11:55 AM,41.0,40.5,98,29.90,1.2,NNW,4.6,-,N/A,,Light Drizzle,340,2012-12-08 16:55:00
12:55 PM,41.7,41.4,99,29.87,3.0,North,4.6,-,N/A,,Overcast,10,2012-12-08 17:55:00
1:55 PM,42.3,41.7,98,29.87,3.0,NW,3.5,-,N/A,,Overcast,310,2012-12-08 18:55:00
2:55 PM,42.8,41.0,93,29.88,3.0,WNW,3.5,-,N/A,,Overcast,290,2012-12-08 19:55:00
3:55 PM,42.1,41.5,98,29.88,3.0,Calm,Calm,-,N/A,,Overcast,0,2012-12-08 20:55:00
4:55 PM,42.8,41.0,93,29.89,5.0,Calm,Calm,-,N/A,,Overcast,0,2012-12-08 21:55:00
5:51 PM,42.8,41.0,93,29.90,2.0,Calm,Calm,-,N/A,,Overcast,0,2012-12-08 22:51:00
5:55 PM,42.8,41.0,93,29.90,1.5,Calm,Calm,-,N/A,,Overcast,0,2012-12-08 22:55:00
6:14 PM,41.0,41.0,100,29.91,1.0,Calm,Calm,-,N/A,,Mist,0,2012-12-08 23:14:00
6:55 PM,41.0,41.0,100,29.91,0.8,SSE,3.5,-,N/A,,Mist,150,2012-12-08 23:55:00
7:47 PM,42.8,42.8,100,29.93,0.5,Calm,Calm,-,N/A,Fog,Fog,0,2012-12-09 00:47:00
7:55 PM,42.8,42.8,100,29.93,0.5,Calm,Calm,-,N/A,Fog,Fog,0,2012-12-09 00:55:00
8:55 PM,42.8,42.8,100,29.94,0.5,SSW,3.5,-,N/A,Fog,Fog,200,2012-12-09 01:55:00
9:07 PM,42.8,42.8,100,29.94,0.5,Calm,Calm,-,N/A,Fog,Fog,0,2012-12-09 02:07:00
9:16 PM,42.8,42.8,100,29.94,0.2,Calm,Calm,-,N/A,Fog,Fog,0,2012-12-09 02:16:00
9:55 PM,42.8,42.8,100,29.95,0.2,Calm,Calm,-,N/A,Fog,Fog,0,2012-12-09 02:55:00
10:55 PM,42.8,42.3,98,29.97,0.2,Calm,Calm,-,N/A,Fog,Fog,0,2012-12-09 03:55:00
11:19 PM,42.8,42.8,100,29.97,0.2,Calm,Calm,-,N/A,Fog,Fog,0,2012-12-09 04:19:00
11:38 PM,42.8,42.8,100,29.98,0.2,Calm,Calm,-,N/A,Fog,Fog,0,2012-12-09 04:38:00
11:55 PM,43.0,42.4,98,29.99,0.2,Calm,Calm,-,0.01,Fog,Fog,0,2012-12-09 04:55:00